When you browse on this site, cookies collect data to enhance your experience and personalize the content and advertising you see.
Visit our Privacy Policy to learn more. By continuing to use the site, you agree to this use of cookies and data.

Hourly Weather Byala

Today, 16 August, Sunday

Time Temperature Precipitation Wind Pressure Humidity
00:00 +21°C° 0 mm 4 mps 750 mmHg 73%
01:00 +20°C° 0 mm 4 mps 750 mmHg 74%
02:00 +20°C° 0 mm 3 mps 750 mmHg 74%
03:00 +20°C° 0 mm 3 mps 750 mmHg 74%
04:00 +20°C° 0 mm 4 mps 750 mmHg 74%
05:00 +19°C° 0 mm 4 mps 750 mmHg 75%
06:00 +21°C° 0 mm 4 mps 750 mmHg 69%
07:00 +23°C° 0 mm 5 mps 750 mmHg 63%
08:00 +25°C° 0 mm 5 mps 750 mmHg 57%
09:00 +26°C° 0 mm 5 mps 750 mmHg 51%
10:00 +27°C° 0 mm 5 mps 751 mmHg 45%
11:00 +28°C° 0 mm 5 mps 751 mmHg 38%
12:00 +29°C° 0 mm 6 mps 751 mmHg 39%
13:00 +29°C° 0 mm 6 mps 751 mmHg 39%
14:00 +29°C° 0 mm 6 mps 751 mmHg 39%
15:00 +28°C° 0 mm 6 mps 751 mmHg 41%
16:00 +27°C° 0 mm 6 mps 751 mmHg 44%
17:00 +26°C° 0 mm 7 mps 750 mmHg 46%
18:00 +24°C° 0 mm 6 mps 751 mmHg 52%
19:00 +22°C° 0 mm 6 mps 751 mmHg 59%
20:00 +20°C° 0 mm 5 mps 751 mmHg 66%
21:00 +20°C° 0 mm 5 mps 751 mmHg 70%
22:00 +19°C° 0 mm 4 mps 751 mmHg 74%
23:00 +18°C° 0 mm 3 mps 751 mmHg 78%

Tomorrow, 17 August, Monday

Time Temperature Precipitation Wind Pressure Humidity
00:00 +18°C° 0 mm 3 mps 751 mmHg 79%
01:00 +18°C° 0 mm 3 mps 751 mmHg 80%
02:00 +17°C° 0 mm 3 mps 751 mmHg 81%
03:00 +17°C° 0 mm 3 mps 751 mmHg 82%
04:00 +16°C° 0 mm 3 mps 751 mmHg 82%
05:00 +16°C° 0 mm 3 mps 751 mmHg 83%
06:00 +18°C° 0 mm 3 mps 751 mmHg 72%
07:00 +21°C° 0 mm 3 mps 751 mmHg 62%
08:00 +23°C° 0 mm 4 mps 752 mmHg 52%
09:00 +25°C° 0 mm 4 mps 751 mmHg 48%
10:00 +27°C° 0 mm 5 mps 751 mmHg 43%
11:00 +29°C° 0 mm 6 mps 751 mmHg 38%
12:00 +29°C° 0 mm 6 mps 751 mmHg 38%
13:00 +29°C° 0 mm 6 mps 751 mmHg 37%
14:00 +29°C° 0 mm 6 mps 751 mmHg 37%
15:00 +28°C° 0 mm 6 mps 750 mmHg 39%
16:00 +27°C° 0 mm 5 mps 750 mmHg 41%
17:00 +27°C° 0 mm 5 mps 750 mmHg 44%
18:00 +25°C° 0 mm 5 mps 750 mmHg 54%
19:00 +22°C° 0 mm 4 mps 750 mmHg 65%
20:00 +20°C° 0 mm 4 mps 750 mmHg 75%
21:00 +19°C° 0 mm 4 mps 750 mmHg 77%
22:00 +19°C° 0 mm 3 mps 750 mmHg 80%
23:00 +19°C° 0 mm 3 mps 750 mmHg 82%

Day after tomorrow, 18 August, Tuesday

Time Temperature Precipitation Wind Pressure Humidity
00:00 +18°C° 0 mm 3 mps 750 mmHg 83%
01:00 +18°C° 0 mm 2 mps 750 mmHg 83%
02:00 +17°C° 0 mm 2 mps 750 mmHg 84%
03:00 +17°C° 0 mm 2 mps 750 mmHg 85%
04:00 +17°C° 0 mm 2 mps 749 mmHg 86%
05:00 +17°C° 0 mm 2 mps 749 mmHg 86%
06:00 +19°C° 0 mm 2 mps 749 mmHg 77%
07:00 +21°C° 0 mm 2 mps 749 mmHg 68%
08:00 +24°C° 0 mm 2 mps 749 mmHg 58%
09:00 +26°C° 0 mm 3 mps 749 mmHg 52%
10:00 +27°C° 0 mm 4 mps 749 mmHg 46%
11:00 +29°C° 0 mm 4 mps 749 mmHg 40%
12:00 +29°C° 0 mm 4 mps 749 mmHg 39%
13:00 +30°C° 0 mm 4 mps 749 mmHg 37%
14:00 +30°C° 0 mm 4 mps 748 mmHg 36%
15:00 +29°C° 0 mm 4 mps 748 mmHg 38%
16:00 +28°C° 0 mm 4 mps 748 mmHg 39%
17:00 +28°C° 0 mm 4 mps 748 mmHg 41%
18:00 +25°C° 0 mm 4 mps 748 mmHg 53%
19:00 +22°C° 0 mm 3 mps 748 mmHg 65%
20:00 +20°C° 0 mm 3 mps 748 mmHg 77%
21:00 +19°C° 0 mm 3 mps 748 mmHg 79%
22:00 +19°C° 0 mm 2 mps 748 mmHg 82%
23:00 +19°C° 0 mm 2 mps 748 mmHg 85%

19 August, Wednesday

Time Temperature Precipitation Wind Pressure Humidity
00:00 +18°C° 0 mm 2 mps 748 mmHg 85%
01:00 +19°C° 0 mm 1 mps 748 mmHg 86%
02:00 +19°C° 0 mm 1 mps 747 mmHg 86%
03:00 +19°C° 0 mm 1 mps 747 mmHg 87%
04:00 +19°C° 0 mm 1 mps 747 mmHg 87%
05:00 +18°C° 0 mm 1 mps 747 mmHg 88%
06:00 +21°C° 0 mm 1 mps 747 mmHg 78%
07:00 +23°C° 0 mm 1 mps 747 mmHg 69%
08:00 +25°C° 0 mm 1 mps 747 mmHg 60%
09:00 +27°C° 0 mm 1 mps 747 mmHg 51%
10:00 +29°C° 0 mm 2 mps 747 mmHg 43%
11:00 +30°C° 0 mm 3 mps 747 mmHg 34%
12:00 +31°C° 0 mm 3 mps 747 mmHg 34%
13:00 +32°C° 0 mm 4 mps 746 mmHg 33%
14:00 +32°C° 0 mm 4 mps 746 mmHg 33%
15:00 +30°C° 0 mm 4 mps 746 mmHg 37%
16:00 +29°C° 0 mm 4 mps 745 mmHg 40%
17:00 +28°C° 0 mm 5 mps 745 mmHg 44%
18:00 +26°C° 0 mm 4 mps 745 mmHg 54%
19:00 +23°C° 0 mm 4 mps 745 mmHg 65%
20:00 +21°C° 0 mm 4 mps 746 mmHg 75%
21:00 +20°C° 0 mm 3 mps 746 mmHg 78%
22:00 +20°C° 0 mm 2 mps 746 mmHg 80%
23:00 +20°C° 0 mm 1 mps 745 mmHg 83%

20 August, Thursday

Time Temperature Precipitation Wind Pressure Humidity
00:00 +20°C° 0 mm 1 mps 745 mmHg 83%
01:00 +20°C° 0 mm 1 mps 745 mmHg 82%
02:00 +20°C° 0 mm 1 mps 745 mmHg 82%
03:00 +20°C° 0 mm 1 mps 745 mmHg 79%
04:00 +21°C° 0 mm 1 mps 745 mmHg 77%
05:00 +21°C° 0 mm 1 mps 745 mmHg 74%
06:00 +21°C° 0 mm 2 mps 745 mmHg 67%
07:00 +23°C° 0 mm 2 mps 746 mmHg 61%
08:00 +24°C° 0 mm 2 mps 746 mmHg 54%
09:00 +27°C° 0 mm 2 mps 746 mmHg 48%
10:00 +29°C° 0 mm 2 mps 746 mmHg 42%
11:00 +31°C° 0 mm 3 mps 747 mmHg 35%
12:00 +31°C° 0 mm 3 mps 747 mmHg 36%
13:00 +31°C° 0 mm 3 mps 746 mmHg 36%
14:00 +32°C° 0 mm 4 mps 746 mmHg 37%
15:00 +31°C° 0 mm 3 mps 746 mmHg 37%
16:00 +30°C° 0 mm 3 mps 746 mmHg 38%
17:00 +30°C° 0 mm 2 mps 746 mmHg 38%
18:00 +28°C° 0 mm 2 mps 747 mmHg 48%
19:00 +26°C° 0 mm 2 mps 747 mmHg 57%
20:00 +24°C° 0 mm 2 mps 747 mmHg 66%
21:00 +23°C° 0 mm 2 mps 747 mmHg 69%
22:00 +22°C° 0 mm 1 mps 747 mmHg 72%
23:00 +21°C° 0 mm 1 mps 748 mmHg 74%

21 August, Friday

Time Temperature Precipitation Wind Pressure Humidity
00:00 +20°C° 0 mm 2 mps 748 mmHg 74%
01:00 +19°C° 0 mm 3 mps 748 mmHg 74%
02:00 +19°C° 0 mm 3 mps 748 mmHg 75%
03:00 +19°C° 0 mm 4 mps 748 mmHg 75%
04:00 +19°C° 0 mm 4 mps 748 mmHg 75%
05:00 +19°C° 0 mm 5 mps 749 mmHg 75%
06:00 +21°C° 0 mm 5 mps 749 mmHg 69%
07:00 +23°C° 0 mm 6 mps 749 mmHg 62%
08:00 +26°C° 0 mm 6 mps 750 mmHg 56%
09:00 +27°C° 0 mm 6 mps 750 mmHg 49%
10:00 +29°C° 0 mm 7 mps 750 mmHg 43%
11:00 +32°C° 0 mm 7 mps 750 mmHg 37%
12:00 +32°C° 0 mm 6 mps 750 mmHg 36%
13:00 +32°C° 0 mm 6 mps 749 mmHg 35%
14:00 +33°C° 0 mm 6 mps 749 mmHg 34%
15:00 +33°C° 0 mm 5 mps 749 mmHg 34%
16:00 +31°C° 0 mm 3 mps 749 mmHg 34%
17:00 +31°C° 0 mm 2 mps 749 mmHg 34%
18:00 +29°C° 0 mm 2 mps 750 mmHg 44%
19:00 +27°C° 0 mm 2 mps 750 mmHg 54%
20:00 +24°C° 0 mm 2 mps 750 mmHg 65%
21:00 +24°C° 0 mm 3 mps 750 mmHg 64%
22:00 +24°C° 0 mm 3 mps 750 mmHg 63%
23:00 +22°C° 0 mm 3 mps 751 mmHg 62%
Show more